Probability
0 0 4 21 50 67 61 63 77 80 80 82 82 79 71 49 18 2 1 0 0 0 0 0 0 0 0 0 0 0 0 0 0 0 0 0 0 0
0 0 2 12 35 59 72 81 87 87 78 69 64 57 44 27 10 1 0 0 0 0 0 0 0 0 0 0 0 0 0 0 0 0 0 0 0 0
0 0 0 3 16 38 60 76 84 82 66 44 34 28 16 7 3 0 0 0 0 0 0 0 0 0 0 0 0 0 0 0 0 0 0 0 0 0
0 0 0 1 5 15 27 39 52 54 40 21 12 10 5 2 1 0 0 0 0 0 0 0 0 0 0 0 0 0 0 0 0 0 0 0 0 0
0 0 0 0 1 3 5 10 16 20 15 7 3 2 1 1 0 0 0 0 0 0 0 0 0 0 0 0 0 0 0 0 0 0 0 0 0 0
0 0 0 0 0 0 0 0 2 3 3 1 0 0 0 0 0 0 0 0 0 0 0 0 0 0 0 0 0 0 0 0 0 0 0 0 0 0
0 0 0 0 0 0 0 0 0 0 0 0 0 0 0 0 0 0 0 0 0 0 0 0 0 0 0 0 0 0 0 0 0 0 0 0 0 0
0 0 0 0 0 0 0 0 0 0 0 0 0 0 0 0 0 0 0 0 0 0 0 0 0 0 0 0 0 0 0 0 0 0 0 0 0 0
0 0 0 0 0 0 0 0 0 0 0 0 0 0 0 0 0 0 0 0 0 0 0 0 0 0 0 0 0 0 0 0 0 0 0 0 0 0
0 0 0 0 0 0 0 0 0 0 0 0 0 0 0 0 0 0 0 0 0 0 0 0 0 0 0 0 0 0 0 0 0 0 0 0 0 0
0 0 0 0 0 0 0 0 0 0 0 0 0 0 0 0 0 0 0 0 0 0 0 0 0 0 0 0 0 0 0 0 0 0 0 0 0 0
0 0 0 0 0 0 0 0 0 0 0 0 0 0 0 0 0 0 0 0 0 0 0 0 0 0 0 0 0 0 0 0 0 0 0 0 0 0
0 0 0 0 0 0 0 0 0 0 0 0 0 0 0 0 0 0 0 0 0 0 0 0 0 0 0 0 0 0 0 0 0 0 0 0 0 0
0 0 0 0 0 0 0 0 0 0 0 0 0 0 0 0 0 0 0 0 0 0 0 0 0 0 0 0 0 0 0 0 0 0 0 0 0 0
0 0 0 0 0 0 0 0 0 0 0 0 0 0 0 0 0 0 0 0 0 0 0 0 0 0 0 0 0 0 0 0 0 0 0 0 0 0
0 0 0 0 0 0 0 0 0 0 0 0 0 0 0 0 0 0 0 0 0 0 0 0 0 0 0 0 0 0 0 0 0 0 0 0 0 0
0 0 0 0 0 0 0 0 0 0 0 0 0 0 0 0 0 0 0 0 0 0 0 0 0 0 0 0 0 0 0 0 0 0 0 0 0 0
0 0 0 0 0 0 0 0 0 0 0 0 0 0 0 0 0 0 0 0 0 0 0 0 0 0 0 0 0 0 0 0 0 0 0 0 0 0
0 0 0 0 0 0 0 0 0 0 0 0 0 0 0 0 0 0 0 0 0 0 0 0 0 0 0 0 0 0 0 0 0 0 0 0 0 0
0 0 0 0 0 0 0 0 0 0 0 0 0 0 0 0 0 0 0 0 0 0 0 0 0 0 0 0 0 0 0 0 0 0 0 0 0 0
0 0 0 0 0 0 0 0 0 0 0 0 0 0 0 0 0 0 0 0 0 0 0 0 0 0 0 0 0 0 0 0 0 0 0 0 0 0
0 0 0 0 0 0 0 0 0 0 0 0 0 0 0 0 0 0 0 0 0 0 0 0 0 0 0 0 0 0 0 0 0 0 0 0 0 0
0 0 0 0 0 0 0 0 0 0 0 0 0 0 0 0 0 0 0 0 0 0 0 0 0 0 0 0 0 0 0 0 0 0 0 0 0 0
Wind_Speed
14 14 11 10 9 10 11 9 9 9 8 7 6 5 6 8 8 7 7 7 5 7 9 10 11 13 12 13 13 12 11 11 10 8 6 3 2 2
10 12 12 9 9 10 9 8 9 8 5 5 5 8 7 7 9 9 7 8 8 11 13 12 13 13 12 12 11 11 11 11 10 9 7 6 6 6
9 8 6 6 7 8 8 7 7 7 6 3 5 9 9 9 8 5 7 9 9 13 13 12 13 14 13 14 13 13 12 12 11 10 9 8 7 6
5 4 3 4 5 5 6 8 7 8 7 8 8 8 9 9 8 7 6 10 9 12 13 13 13 13 13 14 13 12 12 12 10 10 8 7 6 5
5 3 3 5 4 5 6 4 3 6 8 8 9 11 10 11 10 10 10 10 10 11 12 12 12 13 12 11 11 11 10 10 9 8 8 8 8 7
5 5 4 4 3 7 8 8 7 8 8 6 5 8 11 13 12 11 10 9 9 8 10 10 10 12 11 11 10 8 7 6 7 7 8 8 7 7
3 4 4 5 6 8 8 9 8 7 6 5 3 5 9 11 11 10 10 9 7 7 7 7 7 8 8 9 10 10 10 10 9 8 8 7 7 6
3 0 4 8 8 9 10 10 8 8 7 5 5 4 7 7 7 8 9 9 8 6 6 7 6 7 7 8 9 11 11 11 11 10 9 7 5 4
4 1 4 7 8 10 10 10 11 11 7 6 7 7 7 7 6 7 6 5 7 5 5 7 6 7 8 7 7 8 9 9 10 10 11 11 10 6
4 4 6 6 7 8 8 9 10 8 6 6 6 6 7 7 5 6 6 6 7 4 2 5 5 6 6 7 6 7 7 6 5 6 9 12 13 10
6 6 5 7 3 3 7 10 10 9 10 14 13 12 12 9 4 3 7 7 7 5 1 3 4 5 5 4 6 8 6 3 1 1 3 7 15 12
8 6 5 7 4 1 5 8 10 10 10 10 11 10 9 6 2 2 4 5 6 6 2 1 3 3 5 1 3 4 3 2 3 3 2 3 8 10
9 8 7 7 6 2 3 7 8 9 10 9 9 7 7 7 6 5 6 4 3 6 4 3 1 2 3 5 4 2 3 6 7 3 1 1 1 6
9 8 9 9 8 6 5 8 7 7 7 6 6 6 6 7 8 8 9 10 10 9 5 4 3 3 2 2 3 3 2 4 6 8 8 3 3 6
7 13 13 12 12 9 8 7 5 4 5 5 6 6 7 8 8 8 9 9 9 7 5 6 5 2 2 3 3 3 4 4 6 8 8 7 7 8
14 14 12 9 10 10 7 5 4 4 4 6 6 7 8 8 7 7 8 8 9 8 6 5 3 2 3 3 3 3 4 5 6 7 9 7 7 7
14 12 11 11 10 10 8 7 5 5 6 7 7 7 7 7 6 5 5 5 6 7 7 7 5 5 5 5 3 3 4 5 6 7 9 8 6 7
11 12 11 11 10 9 9 8 9 8 8 7 7 7 7 8 7 5 5 5 5 5 4 3 4 6 6 3 4 5 4 5 6 7 8 9 8 9
11 12 11 11 10 9 9 9 9 9 8 7 7 7 7 7 6 6 5 5 5 5 4 3 1 2 2 2 5 2 5 6 7 8 8 9 9 10
13 13 11 11 10 10 9 9 9 9 8 7 7 7 7 7 6 6 6 5 5 4 4 3 2 3 4 5 2 4 2 3 6 8 8 9 10 9
11 12 11 11 10 10 9 9 9 9 9 8 8 7 7 7 6 6 6 5 2 3 4 5 5 0 3 5 5 0 4 6 3 4 7 8 11 11
10 11 11 11 10 10 9 9 10 10 9 8 8 7 6 6 6 7 7 7 5 4 4 4 5 4 3 3 4 4 3 2 8 9 4 3 6 10
10 10 11 11 11 10 10 10 11 10 10 8 8 8 7 5 6 6 6 5 5 4 4 3 4 3 1 1 2 4 4 6 6 3 6 12 13 15
Wind_Direction
271 274 262 249 244 249 253 240 222 222 216 186 165 151 124 120 118 100 84 68 68 84 88 92 89 86 85 86 83 77 74 71 69 67 60 38 3 281
281 278 274 261 246 239 227 222 217 221 198 176 162 129 103 95 88 82 84 60 51 85 98 94 88 89 88 85 83 78 71 66 62 60 58 52 43 29
304 295 290 286 266 257 250 238 220 212 184 113 128 117 106 98 96 109 90 71 60 77 86 87 86 81 80 80 75 73 70 65 57 50 46 41 38 30
336 4 0 322 300 298 272 247 227 203 158 136 134 123 122 118 125 127 108 90 84 85 89 86 81 80 78 75 73 69 65 62 57 47 41 39 42 33
302 328 342 324 49 55 38 40 103 123 122 130 136 146 144 139 138 125 117 107 102 111 101 90 84 80 80 79 72 61 55 52 50 46 41 32 25 11
318 340 330 344 40 88 82 66 75 96 109 110 125 145 148 157 144 136 127 115 114 103 90 101 108 105 101 98 89 80 70 61 54 41 26 14 1 351
33 13 13 26 63 92 106 100 90 94 110 118 135 171 163 163 142 133 122 120 120 126 123 123 116 102 94 85 80 63 51 49 43 33 19 12 6 1
93 289 119 113 103 97 97 98 113 131 147 152 178 148 116 114 121 136 138 146 132 119 118 103 92 80 64 64 57 56 51 37 25 18 13 9 6 10
111 36 96 111 134 123 110 95 75 53 62 87 103 119 124 115 134 144 151 146 112 132 142 121 115 98 93 91 84 80 65 48 31 18 17 8 355 353
152 128 110 128 128 136 133 118 97 69 56 90 94 97 96 101 100 105 112 109 114 132 198 136 125 114 114 104 94 79 78 67 42 17 15 3 346 323
179 141 140 129 80 137 142 122 105 87 62 72 79 74 67 53 47 143 163 174 147 129 206 146 158 145 123 126 127 131 124 127 168 93 42 13 345 323
176 137 73 111 119 319 149 135 122 119 116 106 100 97 94 88 68 288 211 189 146 133 89 308 159 177 133 131 116 136 115 52 231 184 151 47 355 343
180 166 132 119 114 96 162 138 124 124 125 127 128 125 129 128 113 59 16 33 93 91 65 323 146 192 142 159 139 74 40 17 358 356 322 102 313 333
184 152 126 128 113 102 108 109 127 151 149 142 136 132 128 114 97 76 58 52 54 63 55 9 64 36 59 121 85 38 56 42 6 354 343 346 237 243
138 115 123 125 116 106 116 138 166 173 155 152 146 137 114 103 111 107 96 94 88 82 75 38 40 56 38 40 69 52 356 34 15 3 345 353 1 357
117 123 130 126 111 117 142 168 179 164 159 141 127 121 128 147 149 140 147 150 131 119 104 88 80 17 71 68 35 34 12 7 9 9 339 349 356 5
144 144 149 144 146 158 167 165 148 152 146 136 139 150 156 148 138 140 146 142 128 130 136 126 88 55 34 353 2 22 359 5 9 360 341 342 351 2
160 157 156 155 157 163 159 156 156 157 147 148 155 157 151 146 142 146 147 132 126 121 110 104 155 175 169 121 0 350 355 3 357 348 347 339 345 1
177 161 160 159 159 162 159 157 154 146 150 152 147 144 140 139 156 154 149 142 135 124 108 97 74 312 283 117 114 18 347 349 347 343 348 341 343 351
180 163 164 163 163 164 162 157 148 149 161 152 144 145 146 157 164 159 157 154 140 138 128 118 87 31 5 1 343 148 181 316 343 337 338 335 341 327
191 162 164 166 165 164 160 151 152 162 160 158 155 156 157 157 153 146 117 82 126 146 122 98 82 67 273 254 256 220 173 207 238 293 322 331 340 336
196 167 166 167 165 164 159 156 158 159 164 169 163 163 170 163 145 145 145 155 169 135 108 117 157 210 242 325 340 332 342 270 220 216 228 277 336 331
201 175 167 169 168 170 168 170 168 167 175 179 168 168 170 166 151 149 152 155 144 147 156 166 173 204 227 311 288 320 357 333 324 299 207 204 222 236